Temp_Advection
nan nan nan nan nan nan nan nan nan nan nan nan nan nan nan nan nan nan nan nan nan nan nan nan nan nan nan nan nan nan nan nan nan nan nan nan nan nan
nan -0 -0 -0 0 0 0 0 1 0 -1 -1 0 0 0 0 -0 -1 -1 -0 -0 0 0 -0 -0 0 0 0 -0 -0 -0 0 -0 -0 0 0 -0 nan
nan -0 -0 -0 -0 0 0 0 0 1 -1 -2 -0 -0 0 0 0 0 -1 -1 -0 -0 -0 0 0 -0 -0 0 -0 -0 -0 -0 0 0 -0 -0 -0 nan
nan -0 -0 0 -0 0 0 -0 0 1 1 -2 -2 -1 -0 -0 -0 0 0 -0 -0 -0 -0 -0 0 0 -0 0 0 -0 -0 -0 -0 -0 0 0 0 nan
nan -0 -0 -0 -0 -0 0 -0 -0 0 1 0 -2 -2 -1 -0 -0 -1 -0 -0 -0 -0 -0 -0 -0 -0 0 -0 0 0 0 -0 0 0 -0 -0 0 nan
nan -0 -0 -0 -0 -0 -0 -0 -0 -0 -0 0 0 -1 -2 -1 0 -1 -1 -0 -0 -1 -1 -0 -0 -0 -0 0 0 0 0 0 -0 -0 0 0 -0 nan
nan 0 0 0 0 0 -0 -0 -0 0 0 -1 -1 -0 -0 -1 -1 -0 -1 -1 -1 -0 -1 -1 -0 -0 -0 -0 0 0 0 0 0 0 -0 -0 0 nan
nan -0 -0 -0 -0 0 0 0 -0 -0 -0 -1 -1 -1 -1 -1 -1 0 -0 -1 -2 -1 -1 -0 -0 -0 0 -0 0 0 0 0 0 0 0 0 0 nan
nan -1 -1 -1 -1 -0 -0 -0 -0 0 0 0 -0 -0 -1 -1 -0 -1 -1 -1 -1 -1 -1 -1 -1 -0 -0 0 0 0 0 0 0 0 0 -0 -0 nan
nan -0 -0 -1 -0 -0 -1 -1 -1 -0 0 0 0 -0 -0 -0 -0 -0 -0 -0 -1 -1 -0 -1 -1 -0 -0 -0 0 0 0 -0 0 0 0 0 0 nan
nan -0 -0 -0 -0 0 -0 -1 -1 -1 -0 -0 0 -0 -0 0 -0 -1 -1 -0 -0 -1 -1 -0 -1 -0 0 -0 0 0 -0 -0 0 0 0 0 0 nan
nan -0 -0 -0 -0 0 -0 -0 -1 -0 -0 -1 -1 -0 -0 0 0 0 -1 -0 -0 -1 -0 0 -1 0 -0 -0 -0 -0 -0 0 0 0 0 1 0 nan
nan -0 -0 -0 -0 -0 0 -0 -0 -0 -0 -0 -1 -1 -1 -1 -0 0 0 -0 -1 -0 -1 -0 0 0 -0 -0 -0 0 1 1 0 1 1 1 0 nan
nan -0 -0 0 0 -0 -0 -0 -0 -0 -0 -0 -0 -1 -1 -1 -0 -0 0 0 -0 -1 -0 0 0 0 0 0 0 0 1 0 0 0 0 0 0 nan
nan -0 -0 -0 -0 0 0 0 -0 -0 -0 -0 -0 -0 -1 -0 -0 -0 0 -0 -1 -1 0 0 0 0 0 0 -0 -0 0 0 0 0 0 0 0 nan
nan -0 -0 -0 -0 -0 -0 -0 -0 -0 -0 -0 -0 -0 -1 -1 -0 -0 0 -0 -0 -1 -0 -0 -0 0 0 0 -0 0 0 0 -0 0 0 0 -0 nan
nan -0 -0 -0 -0 -0 -0 -0 -0 -0 -0 -0 -0 -0 -0 -0 -0 -0 -0 -0 -0 -1 0 0 0 0 0 -0 -0 0 0 -0 0 0 -1 -1 1 nan
nan -0 -0 -0 -0 -0 -0 -0 -0 -0 -0 -0 -0 -0 -0 -1 -1 -0 0 -0 -0 -0 -0 -0 0 -0 -0 -0 -0 0 0 -0 0 0 -0 -1 -1 nan
nan -0 -0 -0 -0 -0 -0 -0 -0 -0 -0 -0 -0 -0 -0 -0 -0 -0 -0 -0 -0 -0 -0 -0 -0 0 0 -0 -0 0 0 0 0 -0 0 -0 -1 nan
nan -0 -0 -0 0 -0 -0 -0 -0 0 -0 -0 -0 -0 -0 -0 -0 -0 -0 -0 -0 -0 -1 -1 -0 0 -0 -0 0 0 0 -0 0 0 0 0 -0 nan
nan -0 -0 -0 -0 -0 -0 -0 -0 0 -0 -0 0 -0 -0 -0 -0 -0 -0 -0 -1 -0 0 -1 -0 1 0 0 0 -0 -0 -0 -0 0 0 0 -0 nan
nan -0 -0 -0 -0 -0 -0 -0 -0 -0 -0 -0 -0 0 0 0 -0 -0 -1 -0 -0 -0 -0 0 0 0 0 0 0 0 -0 0 0 0 -0 -0 -0 nan
nan nan nan nan nan nan nan nan nan nan nan nan nan nan nan nan nan nan nan nan nan nan nan nan nan nan nan nan nan nan nan nan nan nan nan nan nan nan
Wind_Speed
11 11 12 12 13 14 14 15 15 16 24 16 15 13 14 18 19 20 20 21 21 20 18 19 18 15 15 15 14 13 13 13 12 13 13 12 11 14
15 15 15 15 16 17 17 17 18 18 21 25 20 21 22 22 21 23 23 22 22 21 19 17 17 18 16 15 14 15 15 13 13 13 13 13 13 11
18 18 19 19 19 20 20 21 22 22 25 28 28 25 23 22 22 24 25 24 23 22 22 20 17 17 18 16 15 15 14 14 12 11 12 13 15 14
21 21 22 22 23 23 23 24 24 24 26 30 30 30 27 23 24 25 25 26 24 23 23 21 19 18 17 17 17 15 15 13 11 11 11 12 12 12
23 24 25 25 26 26 26 27 27 28 28 30 32 32 32 28 27 26 27 26 25 23 21 22 20 20 18 17 18 18 15 15 14 12 10 9 8 7
22 23 24 24 25 27 28 28 28 29 29 31 32 32 33 31 30 30 30 27 26 23 23 22 21 20 20 19 19 19 19 17 16 15 15 13 11 10
24 25 25 26 28 27 29 30 31 30 30 33 35 36 35 33 34 33 33 31 29 26 26 24 23 20 20 21 20 19 19 18 17 15 14 13 12 12
25 24 24 24 24 25 27 31 31 28 32 31 35 38 40 40 40 36 32 31 33 28 25 23 22 24 21 21 20 19 17 16 16 15 14 12 12 12
25 25 25 25 24 23 22 23 24 28 30 27 29 32 34 29 27 32 34 30 33 32 31 30 26 26 21 20 21 21 20 18 17 17 16 16 15 14
24 25 26 26 25 25 26 26 24 22 21 23 25 30 33 32 32 32 33 31 35 33 29 34 30 30 27 23 23 24 23 22 21 20 19 18 17 17
28 27 28 29 27 24 23 26 26 25 22 22 22 24 25 28 29 31 34 30 35 38 34 35 35 32 30 26 24 25 24 24 23 22 20 18 17 16
29 30 31 31 28 25 23 26 28 30 29 29 28 28 27 25 22 23 29 36 36 33 35 34 37 31 30 29 28 27 26 24 23 21 19 18 18 17
27 27 28 29 24 22 22 23 28 30 31 31 31 31 32 31 29 25 23 29 33 32 33 26 31 27 27 21 15 23 28 26 23 21 20 19 18 18
26 27 26 25 24 24 25 25 24 25 29 29 30 31 31 33 30 28 26 27 27 33 34 30 24 20 20 22 22 16 16 15 15 16 18 19 20 20
22 24 27 30 32 31 27 29 28 29 29 29 28 29 28 27 25 27 25 28 26 29 32 32 26 23 22 26 22 21 18 21 21 19 20 21 21 23
27 29 30 28 28 30 30 30 26 24 23 25 26 27 26 25 25 26 26 26 26 27 27 21 22 19 23 32 26 21 24 23 21 18 20 22 23 23
26 28 29 30 30 30 30 28 24 21 20 21 23 23 24 23 23 24 26 25 22 21 21 20 20 24 23 22 20 24 27 28 27 24 24 25 26 23
25 26 27 28 28 27 26 25 22 22 22 21 21 21 22 23 23 22 22 25 22 22 23 22 25 25 25 28 30 32 31 31 30 29 28 28 31 31
25 25 23 22 23 23 23 23 24 23 22 22 22 21 21 23 21 20 19 18 20 21 20 19 22 21 21 26 25 21 22 22 20 19 21 25 28 26
21 22 23 23 23 23 23 23 23 21 20 19 19 20 20 20 20 20 21 22 23 23 23 25 23 24 22 22 21 21 20 16 17 18 19 17 17 17
24 23 22 21 20 21 22 23 23 23 22 21 20 20 19 18 20 19 19 20 21 21 28 29 21 21 14 13 18 21 21 20 19 19 19 20 22 24
22 23 22 22 23 25 27 26 25 24 27 27 24 22 20 18 19 21 19 21 17 19 15 24 14 10 15 18 20 20 20 16 16 15 17 19 21 26
21 24 25 26 27 28 28 27 27 27 25 25 26 22 18 21 21 20 19 18 15 8 9 10 11 14 17 18 18 20 21 19 19 21 22 20 23 26
Wind_Direction
308 306 306 307 301 296 292 291 293 296 308 305 315 304 311 314 314 315 316 313 307 307 304 303 303 299 298 296 286 277 277 273 263 259 259 256 242 242
301 302 303 302 298 297 295 289 284 281 277 292 298 292 296 297 298 301 305 307 309 307 303 300 295 296 293 290 290 288 285 277 268 265 258 249 246 236
293 293 293 296 294 292 293 291 288 283 278 289 291 295 294 294 290 288 294 298 301 302 298 297 292 288 288 287 282 281 281 279 273 266 258 253 249 241
286 286 288 289 288 290 291 290 289 289 286 285 292 293 293 293 290 291 290 292 297 296 293 291 290 285 280 278 279 274 273 275 274 270 264 257 251 245
288 288 288 288 287 287 287 287 286 286 287 287 289 290 290 292 292 288 288 289 290 291 285 283 282 283 281 274 269 269 265 260 261 258 253 252 255 253
291 289 288 288 290 291 289 287 287 286 285 284 284 284 285 288 291 291 291 288 288 284 281 278 277 276 277 274 267 260 259 258 253 248 250 255 254 249
293 291 289 286 285 285 287 287 285 284 281 279 280 282 281 282 283 291 292 292 287 283 283 276 275 271 268 268 268 260 256 252 252 247 240 237 241 242
303 301 300 298 297 293 284 278 282 285 287 287 286 287 286 281 282 282 288 289 288 287 284 281 278 268 265 260 259 255 245 243 242 240 237 235 229 224
304 305 303 302 302 303 300 296 290 282 278 282 285 287 292 292 293 290 279 274 274 277 281 280 273 266 262 256 245 245 247 244 241 237 240 241 241 238
305 304 303 302 299 300 304 302 301 298 294 291 285 286 286 287 284 280 281 280 269 266 264 266 268 266 262 255 248 244 245 248 247 245 245 244 242 238
306 305 305 305 301 294 295 297 297 293 295 295 294 291 297 285 278 280 278 279 276 268 261 261 261 265 262 255 248 249 248 247 246 245 241 237 233 229
302 300 301 302 301 291 292 295 294 292 296 295 294 292 293 296 297 292 286 272 266 275 274 255 256 253 257 256 249 246 244 243 242 240 236 228 224 221
299 298 297 301 304 303 298 290 287 293 296 295 294 292 291 296 294 298 294 289 276 275 269 252 244 242 246 250 256 239 237 237 236 229 225 222 226 232
296 295 293 293 299 302 298 294 295 296 295 295 293 291 292 291 289 293 297 298 273 271 270 254 251 227 239 248 243 238 210 208 224 228 227 231 239 244
289 286 288 291 292 295 297 301 301 295 294 293 293 295 295 296 298 286 290 296 299 277 258 256 252 249 237 241 242 249 246 245 250 250 244 241 241 241
294 291 292 293 295 296 298 301 303 302 300 296 297 299 300 298 291 289 287 297 302 299 242 245 247 235 240 241 230 248 256 254 259 260 255 249 248 249
300 297 297 297 300 301 303 305 307 304 303 302 299 298 297 296 291 289 290 292 284 292 244 234 246 248 243 253 255 254 256 260 263 264 262 264 257 251
304 303 304 305 304 306 307 308 305 304 304 302 301 299 297 294 293 290 284 283 286 272 273 268 253 254 255 253 254 257 262 267 270 270 264 263 254 253
308 309 310 312 312 310 307 305 303 302 301 299 300 299 296 297 296 295 290 279 276 274 271 279 258 248 246 250 258 255 258 260 261 262 257 254 255 256
315 312 310 309 307 307 306 305 303 303 301 301 301 303 299 293 290 288 284 282 284 285 278 272 269 245 238 251 263 272 273 264 256 258 259 258 263 261
316 316 314 311 311 306 306 305 301 297 298 300 300 302 303 300 289 291 289 287 281 280 273 257 263 255 240 253 260 265 266 269 268 263 267 267 270 267
311 313 310 309 307 307 307 305 300 298 297 295 292 293 290 292 296 296 293 293 292 279 291 243 243 221 237 247 258 263 268 269 260 264 265 260 261 265
309 306 302 301 302 301 299 297 296 296 296 301 303 290 279 289 291 290 286 283 287 266 266 267 263 254 250 253 262 267 271 272 268 272 272 267 262 265
Height
1512 1511 1510 1509 1508 1508 1507 1505 1504 1501 1496 1494 1494 1492 1491 1489 1488 1487 1485 1484 1482 1481 1478 1476 1474 1473 1471 1469 1469 1468 1466 1466 1465 1465 1464 1466 1468 1470
1509 1508 1507 1506 1505 1504 1503 1502 1500 1499 1496 1491 1491 1490 1489 1486 1484 1482 1481 1479 1478 1476 1474 1472 1471 1469 1468 1467 1466 1464 1463 1462 1463 1462 1462 1463 1465 1465
1505 1503 1502 1501 1500 1499 1498 1497 1496 1494 1491 1487 1486 1485 1483 1481 1480 1478 1476 1475 1474 1472 1470 1468 1467 1465 1464 1463 1463 1461 1461 1461 1461 1460 1460 1461 1462 1462
1499 1497 1496 1495 1494 1493 1492 1491 1490 1489 1486 1482 1480 1478 1477 1477 1475 1472 1471 1470 1469 1468 1466 1464 1462 1461 1460 1459 1458 1459 1458 1456 1457 1457 1457 1459 1460 1459
1494 1492 1490 1489 1487 1487 1486 1484 1483 1481 1479 1476 1473 1472 1470 1470 1468 1467 1465 1463 1463 1462 1461 1459 1457 1455 1455 1454 1454 1454 1454 1454 1454 1455 1455 1457 1457 1456
1488 1486 1484 1483 1481 1480 1479 1477 1476 1473 1472 1469 1465 1464 1464 1463 1461 1460 1457 1457 1455 1455 1454 1453 1452 1451 1450 1450 1449 1449 1449 1450 1451 1452 1452 1452 1452 1453
1481 1480 1478 1476 1475 1473 1471 1469 1468 1466 1464 1462 1458 1456 1455 1455 1454 1453 1451 1450 1448 1448 1447 1447 1446 1446 1445 1444 1444 1445 1445 1445 1446 1446 1447 1448 1449 1449
1474 1473 1471 1469 1467 1465 1463 1462 1461 1457 1455 1453 1450 1448 1446 1447 1446 1444 1444 1443 1440 1442 1440 1440 1440 1439 1439 1439 1439 1439 1440 1442 1442 1443 1444 1445 1446 1447
1468 1466 1463 1462 1460 1458 1455 1453 1452 1451 1449 1447 1443 1441 1438 1439 1439 1436 1435 1435 1433 1435 1435 1432 1433 1431 1433 1433 1434 1434 1436 1437 1438 1439 1440 1441 1442 1443
1462 1460 1457 1455 1454 1451 1449 1446 1444 1442 1441 1440 1437 1435 1433 1432 1431 1429 1427 1424 1424 1424 1427 1424 1425 1424 1426 1426 1427 1429 1430 1432 1433 1434 1435 1436 1437 1438
1455 1453 1451 1448 1447 1445 1442 1440 1437 1435 1434 1433 1431 1429 1426 1424 1423 1421 1419 1417 1413 1413 1418 1417 1416 1417 1419 1418 1420 1422 1424 1425 1426 1428 1429 1431 1432 1434
1448 1446 1444 1442 1440 1438 1436 1434 1430 1428 1426 1425 1423 1421 1419 1417 1416 1415 1412 1408 1408 1405 1405 1409 1408 1411 1411 1410 1412 1414 1417 1419 1421 1422 1423 1426 1428 1430
1442 1440 1438 1436 1433 1431 1429 1427 1424 1422 1419 1417 1415 1413 1411 1410 1407 1407 1405 1403 1400 1398 1399 1399 1398 1400 1403 1404 1405 1406 1409 1412 1414 1416 1418 1420 1422 1424
1436 1433 1431 1429 1427 1426 1424 1421 1418 1416 1413 1410 1407 1405 1403 1400 1400 1399 1398 1395 1392 1391 1392 1392 1390 1392 1395 1398 1401 1403 1404 1407 1409 1411 1413 1415 1416 1418
1429 1427 1424 1422 1420 1418 1416 1414 1412 1408 1406 1403 1400 1397 1395 1393 1391 1390 1389 1388 1384 1382 1382 1383 1384 1385 1388 1391 1395 1398 1401 1402 1404 1406 1408 1409 1411 1412
1422 1419 1417 1415 1413 1411 1408 1406 1404 1401 1399 1396 1393 1390 1388 1386 1384 1383 1382 1381 1378 1373 1373 1376 1378 1378 1382 1385 1388 1391 1394 1396 1398 1399 1402 1403 1404 1405
1415 1411 1409 1407 1404 1402 1400 1397 1396 1394 1392 1390 1387 1384 1382 1380 1378 1377 1375 1374 1373 1371 1367 1371 1374 1375 1377 1379 1381 1384 1386 1388 1391 1393 1394 1395 1396 1398
1408 1405 1402 1400 1397 1395 1392 1390 1389 1388 1386 1383 1381 1379 1376 1374 1372 1370 1370 1368 1368 1367 1366 1368 1369 1370 1372 1374 1376 1376 1378 1380 1382 1384 1386 1386 1387 1389
1402 1399 1396 1394 1391 1389 1387 1385 1382 1381 1379 1377 1375 1373 1371 1368 1366 1365 1364 1363 1362 1362 1362 1362 1363 1364 1366 1366 1368 1370 1371 1374 1376 1376 1377 1378 1379 1381
1397 1394 1391 1388 1386 1384 1381 1379 1377 1375 1373 1371 1369 1367 1366 1363 1362 1360 1359 1358 1357 1356 1356 1357 1358 1358 1360 1362 1363 1364 1366 1368 1369 1370 1371 1373 1374 1375
1391 1388 1386 1383 1380 1378 1376 1373 1371 1369 1367 1365 1363 1361 1360 1358 1356 1355 1353 1353 1352 1351 1349 1349 1351 1353 1355 1358 1358 1358 1361 1362 1363 1365 1366 1367 1367 1367
1386 1383 1380 1377 1375 1372 1369 1367 1364 1362 1361 1359 1357 1355 1354 1353 1351 1350 1348 1347 1346 1345 1342 1342 1347 1349 1351 1352 1352 1354 1356 1357 1358 1358 1360 1361 1361 1359
1380 1377 1374 1371 1368 1366 1363 1360 1358 1355 1353 1351 1349 1348 1347 1346 1345 1344 1343 1342 1342 1341 1341 1342 1343 1345 1346 1348 1349 1349 1350 1351 1352 1352 1353 1355 1354 1353